[[{"header":{"parameterUnit":"m.s-1","parameterCategory":1,"la1":30.2991,"la2":30.254,"lo1":-89.0895,"lo2":-89.0444,"dy":0.0017,"dx":0.0017,"nx":28,"ny":28,"refTime":"2024-03-14T21:00:00:Z","depth":0,"parameterNumber":2,"parameterNumberName":"U-component_of_WINDS"},"data":[0,0,0,0,0,0,0,0,0,0,0,0,0,0,0,0,0,0,0,0,0,0,0,0,0,0,0,0,0,0,0,0,0,0,0,0,0,0,0,0,0,0,0,0,0,0,0,0,0,0,0,0,0,0,0,0,0,0,-3.5182,-3.5183,0,-3.528,-3.5281,-3.5282,-3.5284,-3.5283,-3.5282,-3.5281,-3.538,-3.5383,-3.5387,0,0,0,0,0,0,0,0,0,0,0,0,0,-3.4996,-3.5,-3.5182,-3.5183,-3.5184,-3.528,-3.5281,-3.5283,-3.5284,-3.5283,-3.5281,-3.528,-3.5379,-3.5383,-3.5387,0,0,0,0,0,0,0,0,0,0,0,0,0,-3.5084,-3.5001,-3.5182,-3.5197,-3.5199,-3.528,-3.5281,-3.5283,-3.5285,-3.5283,-3.5281,-3.5279,-3.5377,-3.5383,-3.5388,-3.546,0,0,-3.5405,-3.5408,0,0,0,0,0,0,0,0,-3.5079,-3.5091,-3.5193,-3.5196,-3.5199,-3.5268,-3.5252,-3.5342,-3.5285,-3.5252,-3.5281,-3.5278,-3.5344,-3.5352,-3.5375,-3.5464,-3.5469,-3.5406,-3.5409,-3.5412,-3.5413,0,0,0,0,0,0,0,-3.5073,-3.5086,-3.5221,-3.5195,-3.5198,-3.5199,-3.5209,-3.5269,-3.5307,-3.5255,-3.5255,-3.5267,-3.5345,-3.5369,-3.5377,-3.547,-3.5406,-3.5411,-3.5414,-3.5417,-3.5626,-3.5628,0,0,0,0,0,0,-3.5064,-3.5081,-3.5218,-3.5224,-3.5133,-3.5204,-3.5215,-3.5248,-3.5306,-3.5314,-3.5268,-3.5267,-3.536,-3.537,-3.538,-3.5469,-3.5412,-3.5417,-3.542,-3.5624,-3.5627,-3.5629,0,0,0,0,0,0,-3.506,-3.5076,-3.5214,-3.5153,-3.517,-3.5209,-3.5245,-3.5251,-3.5275,-3.5317,-3.5323,-3.5286,-3.5359,-3.5373,-3.5441,-3.5473,-3.542,-3.5425,-3.5622,-3.5625,-3.5628,-3.5647,0,0,0,0,0,0,-3.5054,-3.5074,-3.5101,-3.5153,-3.5174,-3.5272,-3.5247,-3.5254,-3.5285,-3.5283,-3.5335,-3.5342,-3.5359,-3.5432,-3.5446,-3.5479,-3.5429,-3.5619,-3.5623,-3.5627,-3.5643,-3.565,-3.5656,0,0,0,0,0,-3.5048,-3.5102,-3.5103,-3.5119,-3.5208,-3.5274,-3.5285,-3.5304,-3.5287,-3.5315,-3.5343,-3.534,-3.5468,-3.5439,-3.5455,-3.549,-3.5617,-3.5622,-3.5627,-3.564,-3.5649,-3.5656,0,0,0,0,0,0,-3.5051,-3.5109,-3.511,-3.5183,-3.5224,-3.5274,-3.5309,-3.5312,-3.5358,-3.5354,-3.5376,-3.5388,-3.5456,-3.548,-3.5448,-3.5564,-3.554,-3.5549,-3.5545,-3.5553,-3.556,-3.5551,-3.5434,0,0,0,0,0,-3.5061,-3.5109,-3.5157,-3.5216,-3.5237,-3.527,-3.5299,-3.5311,-3.5353,-3.537,-3.5402,-3.5444,-3.5493,-3.5525,-3.5573,-3.5648,-3.566,-3.568,-3.5687,-3.5692,-3.5698,-3.5741,-3.5751,-3.5645,-3.5645,-3.5645,0,0,-3.508,-3.5118,-3.5146,-3.5218,-3.5251,-3.5301,-3.5284,-3.5337,-3.5374,-3.5378,-3.5444,-3.547,-3.5518,-3.559,-3.5624,-3.5613,-3.573,-3.5698,-3.5702,-3.5705,-3.5747,-3.5757,-3.5766,-3.5649,-3.5648,-3.5648,0,0,-3.5141,-3.5174,-3.5228,-3.5262,-3.5313,-3.5335,-3.5348,-3.5399,-3.5416,-3.5484,-3.5489,-3.5534,-3.5618,-3.5652,-3.5681,-3.5759,-3.5759,-3.5775,-3.5807,-3.5848,-3.5857,-3.5864,-3.5892,-3.5902,-3.5781,-3.5781,-3.5781,0,-3.5158,-3.5233,-3.5255,-3.5309,-3.5341,-3.5349,-3.5404,-3.5436,-3.5499,-3.5521,-3.5508,-3.5617,-3.5649,-3.573,-3.575,-3.5773,-3.5789,-3.5767,-3.5854,-3.5862,-3.5869,-3.5896,-3.5906,-3.5783,-3.5783,-3.5782,-3.5782,0,-3.5252,-3.5305,-3.5343,-3.5405,-3.5441,-3.5495,-3.5526,-3.5561,-3.5571,-3.5594,-3.5664,-3.5705,-3.5761,-3.5782,-3.5791,-3.5866,-3.5857,-3.5849,-3.5825,-3.588,-3.5906,-3.5916,-3.5785,-3.5784,-3.5784,-3.5783,0,0,-3.5314,-3.5391,-3.5404,-3.5433,-3.5492,-3.5533,-3.5589,-3.5646,-3.5675,-3.572,-3.5767,-3.5841,-3.5834,-3.5867,-3.5881,-3.5918,-3.5978,-3.5905,-3.5907,-3.5917,-3.6063,-3.6068,-3.6079,-3.598,-3.5982,-3.5983,-3.6059,0,-3.538,-3.5479,-3.5502,-3.5587,-3.5637,-3.5647,-3.5696,-3.5737,-3.5762,-3.5808,-3.5836,-3.5888,-3.5876,-3.5896,-3.5933,-3.5963,-3.6007,-3.5958,-3.6023,-3.6025,-3.6009,-3.6093,-3.6097,-3.6166,-3.6069,-3.6071,-3.6072,0,-3.5469,-3.5518,-3.5608,-3.5663,-3.5684,-3.5727,-3.5783,-3.5827,-3.5875,-3.5891,-3.5929,-3.594,-3.6,-3.5975,-3.6057,-3.6023,-3.6052,-3.6072,-3.6075,-3.608,-3.605,-3.6099,-3.6189,-3.6199,-3.6088,-3.6087,-3.6086,0,-3.5505,-3.5593,-3.5659,-3.5684,-3.5749,-3.5779,-3.5808,-3.5855,-3.5888,-3.5937,-3.5959,-3.6014,-3.6044,-3.6087,-3.6113,-3.6092,-3.6194,-3.6171,-3.6208,-3.6208,-3.6227,-3.6225,-3.6321,-3.6248,-3.6248,-3.6248,-3.6247,0,-3.5575,-3.563,-3.5676,-3.5716,-3.5778,-3.5806,-3.5867,-3.5895,-3.5938,-3.5984,-3.5997,-3.6041,-3.6073,-3.6122,-3.6143,-3.6208,-3.6222,-3.6236,-3.6241,-3.6234,-3.6232,-3.6252,-3.6247,-3.625,-3.625,-3.6249,-3.6249,0,-3.5624,-3.5657,-3.5729,-3.5786,-3.5802,-3.5846,-3.5895,-3.5935,-3.5962,-3.6021,-3.6036,-3.6078,-3.6136,-3.6168,-3.624,-3.6254,-3.6327,-3.633,-3.6311,-3.6313,-3.6348,-3.6344,-3.6459,-3.6476,-3.6393,-3.6393,-3.6394,0,-3.5665,-3.5708,-3.5771,-3.5804,-3.5833,-3.5885,-3.5921,-3.595,-3.5987,-3.6047,-3.608,-3.6139,-3.6188,-3.628,-3.6317,-3.6373,-3.6377,-3.6414,-3.6385,-3.6378,-3.6377,-3.6373,-3.6378,-3.6417,-3.6418,-3.6419,-3.6419,0,-3.5736,-3.5751,-3.5801,-3.5859,-3.5901,-3.5947,-3.5993,-3.6019,-3.6056,-3.6097,-3.6157,-3.6195,-3.627,-3.6329,-3.6389,-3.6419,-3.6426,-3.6429,-3.644,-3.6433,-3.642,-3.6427,-3.6323,-3.6425,-3.6424,-3.6424,-3.6424,-3.6424,-3.5782,-3.5821,-3.5872,-3.5928,-3.5967,-3.601,-3.6051,-3.6085,-3.6135,-3.6199,-3.6215,-3.6278,-3.6328,-3.641,-3.6442,-3.6492,-3.6485,-3.6502,-3.6506,-3.6509,-3.651,-3.6414,-3.6504,-3.6503,-3.6503,-3.6503,-3.6503,0,-3.5853,-3.5887,-3.5939,-3.6004,-3.6049,-3.6054,-3.6105,-3.6142,-3.6198,-3.6245,-3.6294,-3.6364,-3.6422,-3.6466,-3.6525,-3.6558,-3.6562,-3.6572,-3.6569,-3.6576,-3.6514,-3.6497,-3.6567,-3.6567,-3.6567,-3.6567,-3.6567,-3.6567,-3.5894,-3.5961,-3.5983,-3.607,-3.6104,-3.6167,-3.6196,-3.6237,-3.6275,-3.6353,-3.6402,-3.643,-3.6476,-3.654,-3.6594,-3.6605,-3.6626,-3.6635,-3.6647,-3.6587,-3.658,-3.6574,-3.6558,-3.664,-3.664,-3.6705,-3.6706,-3.6706]},{"header":{"parameterUnit":"m.s-1","parameterCategory":1,"la1":30.2991,"la2":30.254,"lo1":-89.0895,"lo2":-89.0444,"dy":0.0017,"dx":0.0017,"nx":28,"ny":28,"refTime":"2024-03-14T21:00:00:Z","depth":0,"parameterNumber":3,"parameterNumberName":"V-component_of_WINDS"},"data":[0,0,0,0,0,0,0,0,0,0,0,0,0,0,0,0,0,0,0,0,0,0,0,0,0,0,0,0,0,0,0,0,0,0,0,0,0,0,0,0,0,0,0,0,0,0,0,0,0,0,0,0,0,0,0,0,0,0,2.9701,2.97,0,2.9663,2.9662,2.9662,2.9652,2.9652,2.9652,2.9653,2.9613,2.9611,2.961,0,0,0,0,0,0,0,0,0,0,0,0,0,2.9766,2.9765,2.9701,2.97,2.97,2.9663,2.9662,2.9662,2.9652,2.9652,2.9652,2.9653,2.9613,2.9611,2.961,0,0,0,0,0,0,0,0,0,0,0,0,0,2.9734,2.9765,2.9701,2.969,2.9689,2.9663,2.9662,2.9662,2.9652,2.9652,2.9652,2.9653,2.9613,2.9612,2.961,2.9591,0,0,2.9604,2.9603,0,0,0,0,0,0,0,0,2.9736,2.9731,2.9692,2.9691,2.9689,2.9662,2.9671,2.9638,2.9652,2.9666,2.9653,2.9653,2.9629,2.9626,2.9618,2.9589,2.9587,2.9604,2.9602,2.9602,2.9601,0,0,0,0,0,0,0,2.9738,2.9733,2.9686,2.9692,2.969,2.9688,2.9684,2.9664,2.9646,2.9665,2.9664,2.966,2.9628,2.962,2.9617,2.9587,2.9604,2.9602,2.9601,2.96,2.9543,2.9543,0,0,0,0,0,0,2.9742,2.9735,2.9687,2.9684,2.9714,2.9687,2.9682,2.9671,2.9646,2.9643,2.9659,2.9659,2.9623,2.9619,2.9615,2.9593,2.9602,2.96,2.9599,2.9544,2.9543,2.9543,0,0,0,0,0,0,2.9743,2.9738,2.9688,2.971,2.9703,2.9685,2.9673,2.967,2.9661,2.9642,2.9639,2.9654,2.9623,2.9618,2.9598,2.9592,2.9599,2.9597,2.9544,2.9544,2.9543,2.9548,0,0,0,0,0,0,2.9745,2.9738,2.973,2.9709,2.9702,2.9671,2.9672,2.9669,2.9658,2.9658,2.9636,2.9633,2.9623,2.9601,2.9596,2.9589,2.9596,2.9545,2.9544,2.9543,2.9548,2.9548,2.9547,0,0,0,0,0,2.9748,2.9732,2.973,2.9724,2.9692,2.9671,2.9666,2.9655,2.9658,2.965,2.9638,2.9633,2.9593,2.9599,2.9593,2.9586,2.9545,2.9544,2.9543,2.9548,2.9548,2.9547,0,0,0,0,0,0,2.9752,2.9729,2.9726,2.9704,2.9689,2.9669,2.9659,2.9655,2.9639,2.9639,2.9626,2.9621,2.9602,2.9592,2.9598,2.9568,2.9569,2.9567,2.9575,2.9574,2.9574,2.9576,2.9594,0,0,0,0,0,2.975,2.9735,2.9716,2.9698,2.9691,2.9676,2.9667,2.966,2.9644,2.9638,2.9624,2.9609,2.9594,2.9583,2.9567,2.9547,2.9543,2.954,2.9539,2.9539,2.9537,2.9528,2.9526,2.954,2.954,2.954,0,0,2.9746,2.9732,2.9723,2.9699,2.9686,2.9672,2.9671,2.9655,2.9644,2.9635,2.9616,2.9606,2.9588,2.9569,2.9559,2.9559,2.9533,2.9538,2.9538,2.9536,2.9527,2.9526,2.9524,2.954,2.954,2.954,0,0,2.9732,2.9719,2.9704,2.9693,2.9675,2.9666,2.9663,2.9644,2.9637,2.9618,2.9612,2.9599,2.9571,2.956,2.955,2.9536,2.9531,2.9531,2.9528,2.9519,2.9518,2.9517,2.9513,2.9511,2.9529,2.9529,2.9529,0,2.9729,2.9707,2.9696,2.9681,2.9672,2.9665,2.965,2.9639,2.9617,2.9611,2.9612,2.9579,2.9567,2.9546,2.9542,2.9534,2.9531,2.9533,2.9519,2.9518,2.9517,2.9513,2.9511,2.953,2.953,2.953,2.953,0,2.9705,2.969,2.968,2.966,2.9649,2.9634,2.9623,2.9613,2.9608,2.9599,2.9581,2.9566,2.9549,2.9543,2.9537,2.9522,2.9523,2.9521,2.9523,2.9516,2.9512,2.951,2.953,2.953,2.953,2.953,0,0,2.969,2.9668,2.9664,2.9657,2.9638,2.9626,2.9612,2.9596,2.9589,2.9574,2.9563,2.9541,2.9541,2.9531,2.9524,2.9516,2.9507,2.9516,2.9515,2.9515,2.9491,2.9492,2.9491,2.9505,2.9504,2.9504,2.9493,0,2.9675,2.9649,2.9641,2.962,2.9606,2.9601,2.9589,2.9577,2.9569,2.9557,2.9548,2.9534,2.9534,2.9528,2.952,2.951,2.9502,2.9511,2.9494,2.9494,2.9499,2.9488,2.9489,2.9479,2.9491,2.9491,2.9491,0,2.9652,2.9639,2.9617,2.9603,2.9597,2.9586,2.9572,2.9561,2.9548,2.9543,2.9533,2.9527,2.9513,2.9516,2.9498,2.9504,2.9497,2.9491,2.9491,2.9488,2.9492,2.9487,2.9475,2.9474,2.9488,2.9488,2.9488,0,2.9645,2.9622,2.9607,2.96,2.9583,2.9576,2.9568,2.9556,2.9548,2.9535,2.953,2.9516,2.9509,2.9498,2.949,2.9492,2.9472,2.9474,2.9468,2.9469,2.9464,2.9464,2.9452,2.9459,2.9459,2.9459,2.9459,0,2.9629,2.9615,2.9604,2.9594,2.958,2.9572,2.9558,2.9551,2.954,2.953,2.9524,2.9515,2.9504,2.9493,2.9486,2.9473,2.9469,2.9465,2.9463,2.9466,2.9466,2.9461,2.9461,2.9459,2.9459,2.9459,2.9459,0,2.9618,2.961,2.9593,2.9579,2.9575,2.9566,2.9554,2.9545,2.9538,2.9525,2.9521,2.951,2.9497,2.9488,2.9471,2.9467,2.9453,2.9451,2.9457,2.9457,2.9452,2.9453,2.9435,2.9433,2.9442,2.9442,2.9442,0,2.9608,2.9598,2.9584,2.9577,2.957,2.9559,2.9551,2.9543,2.9535,2.9521,2.9515,2.9502,2.9491,2.9471,2.9461,2.9449,2.9447,2.9442,2.9445,2.9448,2.9448,2.9449,2.9448,2.9442,2.9442,2.9441,2.9441,0,2.9592,2.9589,2.9578,2.9566,2.9557,2.9547,2.9537,2.9532,2.9523,2.9514,2.9502,2.9494,2.9478,2.9466,2.9453,2.9446,2.9442,2.9441,2.9439,2.9441,2.9446,2.9444,2.9457,2.9441,2.9441,2.9441,2.9441,2.9441,2.9582,2.9574,2.9563,2.9552,2.9544,2.9536,2.9528,2.952,2.951,2.9497,2.9493,2.9481,2.947,2.9453,2.9446,2.9436,2.9436,2.9433,2.9433,2.9432,2.9433,2.9448,2.9434,2.9434,2.9434,2.9434,2.9434,0,2.9566,2.956,2.955,2.9537,2.9529,2.9527,2.9517,2.951,2.9499,2.949,2.9481,2.9467,2.9456,2.9447,2.9435,2.943,2.9428,2.9427,2.9427,2.9426,2.9433,2.9436,2.9429,2.9429,2.9429,2.9429,2.9429,2.9429,2.9557,2.9544,2.9541,2.9524,2.9518,2.9506,2.9501,2.9494,2.9487,2.9472,2.9463,2.9458,2.9449,2.9437,2.9427,2.9425,2.9421,2.9421,2.9418,2.9425,2.9425,2.9426,2.9429,2.942,2.942,2.9412,2.9412,2.9412]}]]